Welcome to the New NWS' Forecast!
Most changes are behind the scenes, but click here for differences you might notice.
Latest weather observations around

Canton, Cherokee County Airport (KCNI)

Using English Units (Switch to International System of Units)
Date/ Time (EDT) Wind (mph) Vis. (mi) Weather Sky Cond. Temp (°F) Rel. Humidity Wind Chill (°F) Heat Index (°F) Pressure Precip. (in)
Air Dwpt 6 hour Altimeter (inHg) Sea level (inHg) 1 hr 3 hr 6 hr
Max Min
Aug 14 04:15 Calm 5 Fog/Mist SCT002 66 63     88%     30.04        
Notice The following observation data may not be complete
Aug 14 03:55   10 Clear CLR          %              
Aug 14 03:35 Calm 10 Clear CLR 68 64     88%     30.05        
Aug 14 03:15 Calm 10 Clear CLR 68 64     88%     30.05        
Aug 14 02:55 Calm 7 Clear CLR 68 63     83%     30.06        
Aug 14 02:15 Calm 10 Clear CLR 70 64     83%     30.06        
Aug 14 01:55 Calm 10 Clear CLR 70 64     83%     30.07        
Aug 14 01:35 Calm 10 Clear CLR 70 64     83%     30.07        
Aug 14 01:15 Calm 10 Clear CLR 70 64     83%     30.08        
Aug 14 00:55 Calm 10 Clear CLR 70 68     94%     30.08        
Notice The following observation data may not be complete
Aug 14 00:35   5 Fog/Mist CLR          %              
Aug 14 00:15 Calm 10 Clear CLR 70 64     83%     30.08        
Aug 13 23:55 Calm 10 Clear CLR 73 64     73%   74 30.08        
Aug 13 23:35 Calm 10 Clear CLR 72 64     78%   72 30.08        
Aug 13 23:15 Calm 10 Clear CLR 73 64     73%   74 30.08        
Aug 13 22:55 Calm 10 Clear CLR 73 64     73%   74 30.08        
Aug 13 22:35 Calm 10 Clear CLR 73 66     78%   74 30.08        
Aug 13 22:15 Calm 10 Clear CLR 73 64     73%   74 30.08        
Notice The following observation data may not be complete
Aug 13 21:55   10 Clear CLR          %              
Aug 13 21:15 Calm 10 Clear CLR 77 63     61%   77 30.06        
Aug 13 20:55 Calm 10 Clear CLR 77 63     61%   77 30.05        
Aug 13 20:35 Calm 10 Clear CLR 79 61     54%   79 30.05        
Aug 13 20:15 Calm 10 Clear CLR 81 63     54%   82 30.05        
Aug 13 19:55 Calm 10 Clear CLR 81 63     54%   82 30.03        
Aug 13 19:35 W 3 10 Clear CLR 81 61     51%   81 30.03        
Aug 13 19:15 WNW 3 10 Clear CLR 82 61     48%   83 30.03        
Aug 13 18:55 NW 6 10 Clear CLR 82 61     48%   83 30.03        
Aug 13 18:35 NW 5 10 Clear CLR 82 59     45%   82 30.03        
Aug 13 18:15 WNW 8 10 Clear CLR 82        %     30.03        
Aug 13 17:55 WNW 6 10 Clear CLR 84        %     30.03        
Aug 13 17:35 WNW 8 10 Clear CLR 86 61     43%   86 30.03        
Aug 13 17:15 W 8 10 Clear CLR 86 59     40%   85          
Aug 13 16:55 W 7 10 Clear CLR 88 59     38%   87 30.04        
Aug 13 16:35 W 7 10 Partly Cloudy SCT046 88        %     30.05        
Aug 13 16:15 WNW 8 10 Clear CLR 88 59     38%   87 30.05        
Aug 13 15:55 W 7 10 Partly Cloudy SCT046 SCT055 88 59     38%   87 30.06        
Aug 13 15:35 WNW 5 10 Mostly Cloudy BKN048 BKN065 86 59     40%   85 30.07        
Aug 13 15:15 W 10 10 Partly Cloudy SCT048 SCT065 88 59     38%   87 30.07        
Aug 13 14:55 WNW 6 10 Partly Cloudy SCT050 86 61     43%   86 30.08        
Aug 13 14:35 Calm 10 Clear CLR 88        %     30.08        
Aug 13 14:15 W 8 10 Partly Cloudy SCT048 88        %     30.08        
Aug 13 13:55 WSW 3 10 Clear CLR 86        %     30.08        
Aug 13 13:35 W 6 10 Clear CLR 86        %     30.08        
Aug 13 13:15 W 5 10 Clear CLR 86        %     30.09        
Aug 13 12:55 Calm 10 Clear CLR 86        %     30.09        
Aug 13 12:35 Calm 10 Clear CLR 86        %     30.1        
Aug 13 12:15 Calm 10 Clear CLR 84        %     30.1        
Aug 13 11:55 WNW 6 10 Clear CLR 84        %     30.11        
Aug 13 11:35 Calm 10 Clear CLR 82        %     30.11        
Aug 13 11:15 Calm 10 Clear CLR 82 63     51%   83 30.12        
Aug 13 10:55 Calm 10 Clear CLR 81 63     54%   82 30.11        
Aug 13 10:35 Calm 10 Clear CLR 81 64     58%   82 30.11        
Aug 13 10:15 Calm 10 Clear CLR 79 66     65%   79 30.11        
Aug 13 09:55 Calm 10 Clear CLR 77 68     74%   78 30.11        
Notice The following observation data may not be complete
Aug 13 08:35   10 Clear CLR          %              
Aug 13 07:55 Calm 7 Clear CLR 70 68     94%     30.09        
Aug 13 07:35 Calm 7 Clear CLR 68 66     94%     30.09        
Aug 13 07:15 Calm 5 Fog/Mist CLR 68 66     94%     30.08        
Aug 13 06:55 Calm 5 Fog/Mist CLR 68 64     88%     30.08        
Notice The following observation data may not be complete
Aug 13 03:35   10 Clear CLR          %              
Aug 13 03:15 Calm 10 Clear CLR 72 66     83%   72          
Aug 13 02:55 W 3 10 Clear CLR 72 64     78%   72          
Aug 13 02:35 Calm 10 Clear CLR 72 64     78%   72 30.08        
Aug 13 02:15 Calm 10 Clear CLR 73 64     73%   74 30.08        
Aug 13 01:35 Calm 10 Clear CLR 72 66     83%   72 30.08        
Aug 13 01:15 Calm 10 Clear CLR 72 68     88%   73 30.08        
Aug 13 00:35 Calm 10 Clear CLR 73 64     73%   74 30.09        
Aug 13 00:15 Calm 10 Clear CLR 73 64     73%   74 30.09        
Aug 12 23:55 Calm 10 Clear CLR 73 68     83%   74 30.09        
Aug 12 23:35 Calm 10 Clear CLR 72 68     88%   73 30.09        
Aug 12 23:15 Calm 10 Clear CLR 73 68     83%   74 30.09        
Aug 12 22:55 Calm 10 Clear CLR 75 64     69%   76 30.09        
Aug 12 22:35 Calm 10 Clear CLR 75 64     69%   76 30.09        
Aug 12 22:15 Calm 10 Clear CLR 77 64     65%   77 30.09        
Aug 12 21:35 Calm 10 Clear CLR 79 64     61%   79 30.07        
Aug 12 21:15 Calm 10 Clear CLR 79 64     61%   79 30.06        
Aug 12 20:55 Calm 10 Clear CLR 79 64     61%   79 30.05        
Aug 12 20:35 Calm 10 Clear CLR 79 66     65%   79          
Aug 12 20:15 WNW 3 10 Clear CLR 81 64     58%   82 30.05        
Aug 12 19:55 NW 6 10 Clear CLR 81 64     58%   82 30.04        
Aug 12 19:35 WNW 5 10 Clear CLR 82 64     55%   84 30.03        
Aug 12 19:15 WNW 6 10 Clear CLR 82 63     51%   83 30.03        
Notice The following observation data may not be complete
Aug 12 18:55   10 Clear CLR          %              
Aug 12 18:35 WNW 7 10 Clear CLR 86 61     43%   86 30.03        
Aug 12 18:15 WNW 6 10 Clear CLR 86        %     30.03        
Aug 12 17:55 WNW 7 10 Clear CLR 86 61     43%   86 30.03        
Aug 12 17:35 NW 9 10 Clear CLR 88 63     43%   88          
Aug 12 17:15 WNW 7 10 Clear CLR 88 63     43%   88          
Aug 12 16:55 NW 6 10 Clear CLR 88 61     40%   88          
Aug 12 16:35 WNW 6 10 Clear CLR 88        %              
Aug 12 16:15 NW 7 10 Partly Cloudy SCT046 88        %     30.05        
Aug 12 15:55 NW 6 10 Partly Cloudy SCT046 88        %     30.06        
Aug 12 15:35 NW 6 10 Partly Cloudy SCT042 SCT050 SCT065 90        %     30.06        
Aug 12 15:15 NW 5 10 Partly Cloudy SCT036 SCT065 88        %     30.06        
Aug 12 14:55 WNW 8 10 Partly Cloudy SCT036 88        %     30.06        
Aug 12 14:35 WNW 10 10 Clear CLR 88        %              
Aug 12 14:15 WNW 8 10 Partly Cloudy SCT032 SCT038 SCT045 88 66     49%   90          
Aug 12 13:55 W 8 10 Partly Cloudy SCT030 SCT045 SCT065 86 66     52%   88 30.08        
Aug 12 13:35 W 9 10 Partly Cloudy SCT028 86 68     55%   89 30.09        
Aug 12 13:15 W 7 10 Clear CLR 86 68     55%   89 30.09        
Aug 12 12:55 W 6 10 Clear CLR 84 68     58%   87          
Aug 12 12:15 W 7 10 Clear CLR 84 66     55%   87          
Aug 12 11:55 W 6 10 Clear CLR 86 66     52%   88          
Aug 12 11:35 WNW 5 10 Clear CLR 84 66     55%   87 30.11        
Aug 12 11:15 W 6 10 Clear CLR 82 66     58%   85 30.11        
Aug 12 10:55 WNW 3 10 Clear CLR 82 68     62%   85 30.11        
Notice The following observation data may not be complete
Aug 12 10:35   10 Clear CLR          %              
Aug 12 10:15 Calm 10 Clear CLR 81 70     70%   84 30.09        
Aug 12 09:55 Calm 10 Clear CLR 81 70     70%   84          
Aug 12 09:15 Calm 10 Clear CLR 77 68     74%   78 30.09        
Aug 12 07:55 Calm 10 Clear CLR 72 68     88%   73 30.07        
Aug 12 07:35 Calm 10 Clear CLR 72 68     88%   73          
Aug 12 07:15 Calm 10 Clear CLR 70 68     94%              
Aug 12 06:55 Calm 7 Clear CLR 70 66     88%              
Aug 12 06:15 Calm 10 Clear CLR 70 66     88%     30.05        
Aug 12 05:55 Calm 7 Clear CLR 70 64     83%     30.04        
Aug 12 05:35 Calm 10 Clear CLR 72 64     78%   72 30.04        
Aug 12 04:55 Calm 10 Clear CLR 72 66     83%   72 30.03        
Aug 12 04:35 Calm 10 Clear CLR 72 68     88%   73 30.03        
Aug 12 04:15 Calm 10 Clear CLR 73 68     83%   74 30.04        
Aug 12 03:55 Calm 10 Clear CLR 72 68     88%   73 30.03        
Aug 12 03:35 Calm 10 Clear CLR 72 66     83%   72 30.03        
Aug 12 02:35 Calm 10 Clear CLR 73 68     83%   74 30.04        
Aug 12 02:15 Calm 10 Clear CLR 72 68     88%   73 30.04        
Aug 12 01:55 Calm 10 Clear CLR 73 68     83%   74 30.04        
Aug 12 01:35 Calm 10 Clear CLR 73 68     83%   74 30.05        
Aug 12 01:15 Calm 10 Clear CLR 73 68     83%   74 30.05        
Aug 12 00:35 Calm 10 Clear CLR 73 68     83%   74 30.04        
Aug 12 00:15 Calm 10 Clear CLR 75 66     74%   76 30.05        
Aug 11 23:55 Calm 10 Clear CLR 75 64     69%   76 30.05        
Aug 11 23:35 Calm 10 Clear CLR 73 66     78%   74 30.04        
Aug 11 23:15 Calm 10 Clear CLR 73 66     78%   74 30.04        
Aug 11 22:55 Calm 10 Clear CLR 77 66     69%   78 30.04        
Aug 11 22:15 Calm 10 Clear CLR 77 68     74%   78 30.03        
Aug 11 21:55 Calm 10 Clear CLR 77 66     69%   78 30.03        
Aug 11 21:35 Calm 10 Clear CLR 77 66     69%   78 30.02        
Aug 11 21:15 Calm 10 Clear CLR 77 66     69%   78 30.02        
Aug 11 20:55 NW 6 10 Clear CLR 79 66     65%   79 30.01        
Aug 11 20:35 WNW 5 10 Clear CLR 79 66     65%   79 30.01        
Aug 11 20:15 WNW 5 10 Clear CLR 81 66     62%   83 30.01        
Aug 11 19:55 WNW 7 10 Clear CLR 81 66     62%   83 30.01        
Aug 11 19:35 WNW 8 10 Clear CLR 82 64     55%   84 30        
Aug 11 19:15 WNW 7 10 Clear CLR 82 66     58%   85 29.99        
Aug 11 18:55 NW 7 10 Clear CLR 84 64     52%   86 29.99        
Aug 11 18:15 W 9 10 Clear CLR 86 64     49%   88 29.99        
Aug 11 17:55 WNW 11 10 Clear CLR 86 64     49%   88          
Aug 11 17:35 WNW 8 10 Clear CLR 86 64     49%   88 29.98        
Aug 11 17:15 NW 9 10 Clear CLR 86 64     49%   88 29.98        
Aug 11 16:55 WNW 9 10 Clear CLR 86 64     49%   88 29.98        
Aug 11 16:35 WNW 10 10 Partly Cloudy SCT034 SCT040 SCT055 86 64     49%   88 29.99        
Aug 11 16:15 NNW 6 10 Partly Cloudy SCT037 SCT055 86 64     49%   88 30        
Aug 11 15:55 WNW 9 10 Partly Cloudy SCT035 86 64     49%   88 30.01        
Aug 11 15:35 NW 8 10 Mostly Cloudy SCT035 BKN043 BKN050 86 64     49%   88 30.01        
Aug 11 15:15 NNW 3 10 Cloudy SCT033 BKN048 OVC050 86 64     49%   88 30.02        
Aug 11 14:55 W 10 10 Cloudy SCT033 SCT041 OVC050 84        %     30.02        
Aug 11 13:15 NW 9 10 Cloudy SCT027 OVC049 81 64     58%   82 30.04        
Aug 11 12:35 NW 5 10 Cloudy SCT022 SCT031 OVC045 81 66     62%   83 30.04        
Notice The following observation data may not be complete
Aug 11 12:15   10 Mostly Cloudy BKN022 BKN027 BKN033          %              
Aug 11 11:55 Calm 10 Cloudy SCT020 SCT033 OVC040 79 64     61%   79 30.05        
Aug 11 10:55 WNW 7 10 Cloudy BKN014 BKN023 OVC035 77 68     74%   78 30.04        
Aug 11 10:35 WNW 7 10 Mostly Cloudy BKN014 BKN022 BKN035 77 68     74%   78 30.03        
Notice The following observation data may not be complete
Aug 11 09:15   10 Partly Cloudy SCT008 SCT035          %              
Aug 11 08:55 WNW 5 10 Partly Cloudy SCT007 73 72     94%   75 30.03        
Aug 11 07:35 Calm 5 Fog/Mist CLR 70 70     100%     30.02        
Aug 11 07:15 WNW 3 4 Fog/Mist CLR 70 68     94%     30.01        
Notice The following observation data may not be complete
Aug 11 06:55   7 Clear CLR          %              
Aug 11 06:15 W 3 7 Clear CLR 70 70     100%     29.98        
Aug 11 05:15 Calm 10 Clear CLR 72 70     94%   73 29.98        
Aug 11 04:35 W 3 10 Clear CLR 72 70     94%   73          
Aug 11 04:15 W 5 10 Clear CLR 72 70     94%   73 29.97        
Aug 11 03:55 W 3 7 Clear CLR 72 70     94%   73 29.97        
Aug 11 03:35 Calm 1 Fog/Mist VV007 70 68     94%              
Aug 11 03:15 Calm 10 Partly Cloudy SCT002 72 70     94%   73          
Aug 11 02:15 Calm 7 Partly Cloudy SCT040 72 68     88%   73 29.99        
Aug 11 01:55 Calm 10 Mostly Cloudy SCT040 BKN055 72 70     94%   73 30        
Aug 11 01:35 Calm 10 Mostly Cloudy BKN055 BKN065 BKN120 72 68     88%   73 30        
Aug 11 01:15 Calm 10 Mostly Cloudy SCT065 BKN090 BKN110 72 68     88%   73          
May 15 14:55 ESE 11 10 Mostly Cloudy SCT028 BKN032 BKN120 82        %     30.01        
May 15 13:55 ENE 6 10 Partly Cloudy SCT120 81 63     54%   82 30.03        
May 15 07:35 Calm 10 Mostly Cloudy SCT027 BKN036 BKN070 70 63     78%     30.07        
May 14 21:35 Calm 10 Clear CLR 81        %     30        
May 14 20:15 Calm 10 Clear CLR 84        %     30        
May 14 11:55 WNW 5 10 Clear CLR 86        %     30.08        
Notice The following observation data may not be complete
May 14 09:55 Calm 10 Clear CLR   61      %     30.09        
May 14 08:35 Calm 10 Clear CLR 68 63     83%     30.09        
May 14 05:35 Calm 7 Clear CLR 63 61     94%     30.05        
May 14 00:35 Calm 10 Clear CLR 70 61     73%              
May 13 20:55 Calm 10 Clear CLR 79 59     51%   79 30.08        
May 13 13:15 WNW 10 10 Clear   86        %     30.15        
May 13 05:55 Calm 10 Clear CLR 59 54     82%     30.13        
May 13 05:15 Calm 10 Clear CLR 61 57     88%     30.12        
May 13 01:15 Calm 10 Clear CLR 63 55     77%     30.12        
May 12 18:15 WNW 5 10 Clear CLR 88        %     30.13        
May 12 14:35 W 3 10 Clear CLR 88        %     30.17        
May 12 08:15 Calm 7 Clear CLR 64 61     88%     30.2        
May 12 07:35 Calm 7 Clear CLR 63 61     94%     30.19        
May 12 04:35 Calm 4 Clear   63 61     94%     30.15        
May 11 21:55 Calm 10 Clear CLR 72 63     73%   72 30.13        
Notice The following observation data may not be complete
May 11 20:55 Calm 10 Clear CLR          %     30.12        
May 11 19:55 Calm 10 Clear CLR 82        %     30.11        
May 11 19:35 Calm 10 Clear CLR 84        %     30.11        
May 11 14:35 Calm 10 Clear CLR 86        %     30.14        
May 11 11:35 WNW 8 10 Clear CLR 81        %     30.18        
May 11 09:55 Calm 10 Clear CLR 73 63     69%   74 30.17        
Jun 12 08:55 Calm 10 Cloudy BKN008 OVC012 72 66     83%   72 30.25        
Jun 12 02:35 Calm 10 Clear CLR 73 64     73%   74 30.21        
Jun 11 23:35 E 3 10 Mostly Cloudy SCT029 BKN049 77 63     61%   77 30.21        
Jun 11 22:55 ESE 3 10 Partly Cloudy SCT049 77        %     30.21        
Jun 11 19:55 Calm 10 Partly Cloudy SCT055 82        %     30.17        
Jun 11 16:15 E 8 10 Partly Cloudy SCT038 88        %     30.2        
Jun 11 15:15 E 6 10 Mostly Cloudy SCT037 SCT042 BKN055 86        %     30.22        
Jun 11 07:35 Calm 10 Partly Cloudy SCT008 64 61     88%     30.21        
Jun 10 23:15 Calm 10 Clear CLR 73        %     30.18        
Jun 10 22:35 Calm 10 Clear CLR 75        %     30.16        
Jun 10 19:55 Calm 10 Mostly Cloudy BKN060 BKN075 82        %     30.11        
Jun 10 19:35 Calm 10 Partly Cloudy SCT060 81        %     30.1        
Jun 10 16:15 ENE 5 10 Partly Cloudy SCT055 SCT080 86        %     30.12        
Jun 10 11:35 Calm 10 Partly Cloudy SCT070 79        %     30.15        
Jun 10 11:15 Calm 10 Partly Cloudy SCT060 SCT070 77        %     30.16        
Jun 10 10:55 Calm 10 Mostly Cloudy SCT050 BKN070 77        %     30.16        
Jun 10 05:55 Calm 5 Fog/Mist CLR 59 55     88%     30.07        
Jun 10 05:15 Calm 5 Fog/Mist CLR 59 55     88%     30.06        
Jun 09 18:15 WNW 7 10 Clear CLR 81 46     30%   80 29.97        
Notice The following observation data may not be complete
Jun 09 15:35   10 Partly Cloudy SCT070          %              
Notice The following observation data may not be complete
Jun 09 15:15   10 Clear CLR          %              
Jun 09 14:55 WNW 3 10 Clear CLR 81        %     30        
Jun 09 09:55 Calm 10 Clear CLR 70 55     60%     30.02        
Jun 09 06:15 Calm 5 Fog/Mist CLR 59 55     88%     29.97        
Jun 08 23:35 Calm 10 Clear CLR 66 59     78%     29.93        
Jun 08 13:35 SSW 3 10 Partly Cloudy SCT036 SCT060 SCT085 75 48     38%   74 29.95        
Jun 08 12:35 ENE 3 10 Partly Cloudy SCT031 SCT041 SCT050 73        %     29.96        
Jun 08 10:15 ENE 7 10 Partly Cloudy SCT016 SCT100 70 54     56%     29.97        
Jun 08 09:35 ENE 5 10 Partly Cloudy SCT012 68 54     60%     29.97        
Jun 07 23:35 Calm 10 Light Drizzle SCT037 SCT042 OVC050 66 59     78%     29.91        
Jun 07 22:55 Calm 10 Cloudy BKN036 BKN055 OVC070 68 55     64%     29.91        
Jun 07 19:55 E 5 10 Mostly Cloudy SCT050 BKN075 77 52     41%   76 29.86        
Jun 07 16:15 Calm 10 Mostly Cloudy SCT060 BKN090 77 52     41%   76 29.85        
Jun 07 13:35 E 3 10 Clear CLR 79        %     29.86        
Notice The following observation data may not be complete
Jun 07 09:35   10 Mostly Cloudy BKN060 BKN070          %              
Jun 06 15:15 WNW 3 10 Clear CLR 79 61     54%   79 29.8        
Jun 06 06:35 Calm 1.25 Fog/Mist BKN009 70 66     88%     29.84        
Jun 06 05:55 Calm 1.5 Light Rain SCT005 BKN120 70 68     94%     29.84        
Notice The following observation data may not be complete
Jun 06 04:35   5 Fog/Mist OVC003          %              
Notice The following observation data may not be complete
Jun 06 03:35   7 Partly Cloudy SCT003 SCT080 SCT120          %              
Jun 06 01:35 Calm 7 Partly Cloudy SCT120 70 68     94%     29.86        
Jun 05 22:55 W 3 10 Clear   72 68     88%   73 29.87